Wetbulb
69.97 71.80 72.35 66.34 56.31 55.80 53.25 55.09 59.37 56.75 57.08 59.72 61.96 61.26 59.99 61.68 58.58 50.82 66.10 69.41 70.50 71.10 72.52 73.53 75.23 74.81 74.80 75.11 75.78 75.99 75.45 75.55 76.65 76.65 76.77 76.72 76.59 76.70 76.52 76.68 76.69 76.79 76.28 76.28 76.33 76.44 76.28 76.37 76.21
67.97 67.21 69.48 62.78 54.28 48.54 52.68 58.29 56.20 58.41 60.10 61.59 63.14 62.81 61.45 59.40 65.07 64.83 66.24 70.01 70.80 71.59 72.21 73.10 75.78 75.23 75.41 76.00 76.16 76.70 76.61 76.76 76.88 76.93 76.51 76.50 76.71 76.58 76.50 76.63 76.90 76.97 76.96 76.83 76.97 76.54 76.45 76.58 76.49
70.65 69.45 60.61 57.23 55.00 50.02 52.09 58.42 58.87 60.33 62.45 62.51 61.57 64.46 63.09 61.71 65.18 66.15 68.44 70.06 71.44 71.48 72.22 73.03 75.80 75.61 75.45 75.69 76.44 76.45 76.20 76.76 76.77 76.73 76.66 76.60 76.37 76.73 76.76 76.42 76.71 76.82 76.96 76.79 76.65 76.48 76.43 76.34 76.01
68.54 66.81 62.80 54.75 54.43 57.15 58.29 59.38 61.41 61.08 62.83 63.84 63.20 60.24 64.79 68.04 66.85 68.33 70.06 71.37 70.94 72.22 72.78 74.22 75.81 75.77 76.23 75.96 76.64 76.69 76.45 76.57 76.66 76.59 76.45 76.60 76.30 76.56 76.99 77.21 77.12 77.32 77.23 77.10 76.79 76.67 76.33 76.10 75.90
68.80 63.02 55.48 53.87 55.67 58.74 60.42 62.67 61.95 60.09 61.18 62.41 62.90 60.52 62.52 67.48 69.25 70.09 70.38 71.02 71.00 71.66 73.00 73.69 76.22 76.43 76.40 76.49 76.57 76.60 76.37 76.48 76.51 76.65 76.75 76.79 76.88 77.19 77.16 77.11 77.19 77.12 77.40 77.03 76.56 76.34 76.20 75.82 75.43
61.89 62.52 54.34 52.12 55.40 58.65 60.96 63.55 62.71 61.61 62.62 62.87 62.36 62.23 62.74 68.11 68.42 69.45 71.05 71.07 72.55 72.75 73.16 73.59 76.16 76.44 76.33 76.47 76.29 76.40 76.20 76.25 76.29 76.69 76.64 76.71 76.93 77.19 77.00 76.86 76.94 77.15 76.93 76.54 76.15 75.82 75.43 75.77 75.35
59.76 58.53 55.17 54.44 55.07 56.41 60.00 64.57 62.34 62.14 61.77 62.12 64.88 60.01 63.19 64.84 69.11 70.60 71.31 72.19 73.33 73.51 71.93 72.43 73.22 75.06 76.47 76.50 76.41 76.32 76.02 75.95 76.44 76.60 76.55 76.48 76.89 76.69 76.75 76.87 76.81 76.91 76.32 75.91 75.79 75.59 75.00 74.74 74.66
62.00 60.41 55.68 55.16 54.16 54.28 60.12 62.85 64.78 63.13 62.46 66.30 66.19 60.11 60.36 63.68 68.63 70.72 71.49 72.14 72.02 72.20 72.11 72.09 72.77 73.36 72.72 73.71 76.05 76.18 76.42 76.29 76.35 76.05 76.37 76.92 77.17 77.13 76.59 77.20 76.26 75.01 75.18 75.21 74.88 74.33 74.47 74.19 73.85
65.62 56.01 53.97 54.69 54.83 56.47 61.95 61.91 65.28 66.62 63.64 64.37 65.53 64.43 65.77 66.30 69.00 68.99 69.43 69.91 70.38 71.29 71.16 71.81 71.58 71.94 72.29 73.16 74.82 75.76 76.35 76.44 75.96 76.18 76.78 76.14 73.07 73.69 74.49 76.08 76.21 75.71 75.24 74.85 74.29 73.91 73.71 73.85 74.58
60.20 55.09 55.42 59.42 59.90 58.70 61.62 61.79 62.84 62.59 61.99 62.17 63.71 65.89 66.27 66.80 67.50 67.16 67.75 67.59 69.05 69.06 70.27 71.19 71.59 72.02 72.14 74.19 72.84 72.59 73.64 73.11 72.79 72.66 73.35 72.24 71.72 71.96 73.78 75.19 76.27 75.85 75.74 75.77 75.73 75.71 74.99 74.19 70.38
61.30 56.30 60.21 59.80 61.75 62.29 61.14 61.49 62.75 62.09 59.05 61.75 62.20 62.85 64.10 66.32 66.49 66.71 66.89 67.83 68.04 69.64 71.04 70.72 71.38 71.88 71.60 71.11 71.69 71.68 71.93 71.74 71.66 71.72 72.02 71.10 71.68 71.51 71.84 71.54 71.91 71.98 74.61 72.67 73.37 73.27 73.51 73.29 72.41
59.60 62.27 62.10 62.03 62.95 61.62 59.85 62.24 60.24 63.36 62.53 65.26 65.71 64.92 65.31 65.00 65.65 65.59 66.02 65.89 66.67 69.21 70.28 70.97 70.64 70.29 70.30 70.98 71.61 71.60 71.41 71.16 70.79 71.03 71.12 70.51 69.79 70.08 69.61 69.80 70.92 70.73 70.64 71.08 70.84 70.86 71.60 71.83 71.76
57.45 61.69 63.11 63.05 62.51 62.45 62.58 60.48 61.76 62.84 65.15 66.75 66.74 66.30 65.41 64.69 65.74 66.41 67.29 67.14 67.51 68.24 68.92 70.32 69.30 68.75 69.25 70.42 71.11 70.97 70.61 70.75 70.44 69.98 70.90 70.53 69.05 69.16 68.08 68.79 68.99 69.63 70.06 69.82 69.88 70.42 70.70 70.97 71.24
59.20 62.61 62.20 62.62 62.29 62.14 60.06 61.23 62.74 63.96 66.23 65.51 64.97 64.25 64.40 64.45 65.62 65.99 66.27 66.12 67.25 68.01 67.05 68.84 69.53 70.20 69.73 69.91 69.72 69.64 70.02 69.88 68.65 69.08 70.20 70.44 69.16 68.32 69.52 68.38 68.49 69.00 69.49 69.60 69.72 69.52 69.19 68.67 67.46
62.44 59.62 62.12 62.23 62.39 60.91 62.44 58.38 58.94 63.55 64.71 63.74 63.51 63.47 64.11 64.71 66.13 65.75 66.44 66.24 67.03 67.63 66.37 67.93 69.42 70.73 70.24 69.40 69.20 69.23 69.78 69.37 67.70 68.96 70.83 69.94 69.33 70.53 69.05 68.80 67.70 69.11 70.84 70.42 69.45 69.16 69.50 69.39 67.42
59.38 59.64 54.27 60.63 61.48 62.84 60.70 51.99 58.68 63.18 63.79 62.62 62.71 62.61 63.51 63.94 65.66 66.44 67.24 67.09 66.83 66.52 65.88 68.35 70.30 70.20 69.44 68.16 67.56 69.25 68.99 68.19 67.73 69.22 70.57 69.82 70.45 70.75 69.14 69.89 70.69 70.96 69.97 70.22 70.18 69.31 68.40 66.03 65.28
57.51 52.51 53.40 56.86 61.43 60.87 59.53 55.13 59.08 62.41 62.97 61.24 61.41 62.33 62.84 62.88 64.56 66.51 67.52 66.98 66.13 66.61 66.27 67.23 65.71 69.25 67.29 66.86 67.33 67.95 68.53 68.34 68.60 69.51 69.82 68.84 71.42 70.95 69.08 67.96 69.25 69.12 67.90 67.70 68.30 68.78 69.01 67.93 65.98
48.76 52.11 54.21 53.61 58.79 58.67 58.07 57.33 58.26 60.15 61.78 61.12 61.67 61.93 61.96 62.51 64.19 66.44 67.19 66.86 67.92 66.95 67.04 67.46 66.49 68.44 67.15 66.03 66.76 67.55 68.10 68.81 69.27 69.04 68.67 71.68 71.07 70.34 67.59 67.13 67.96 67.98 66.69 68.21 68.63 69.14 69.31 66.28 65.72
52.72 53.70 53.16 55.29 59.39 57.70 57.18 57.02 59.21 59.31 59.64 59.97 60.73 61.65 61.84 62.07 64.49 66.32 67.94 68.88 68.28 67.65 67.28 67.59 67.70 67.90 66.40 66.32 66.56 66.62 66.16 68.12 67.77 68.26 70.91 70.75 70.73 70.61 69.25 65.91 65.72 65.82 67.20 67.62 68.80 69.92 69.95 68.90 67.94
46.53 52.29 53.02 56.88 59.76 59.08 57.44 56.90 58.76 58.32 58.68 60.28 60.27 61.54 62.02 62.34 63.31 65.36 66.76 67.80 67.39 66.99 67.26 67.17 67.90 67.63 66.37 67.15 68.10 68.60 66.61 69.34 68.26 70.03 68.98 69.99 69.76 68.89 69.57 66.00 63.31 64.59 66.81 67.59 68.81 66.95 68.64 66.43 68.19
42.14 51.12 53.20 53.28 56.86 58.32 57.08 53.52 56.44 58.84 59.19 59.83 60.88 62.84 63.01 62.92 62.44 63.96 65.65 66.28 66.87 66.69 67.09 67.59 67.48 67.94 68.36 67.73 68.00 67.62 69.09 69.65 68.89 67.26 67.10 65.39 69.80 70.16 71.33 67.58 64.25 63.92 66.74 66.96 67.94 65.97 65.52 65.49 68.81
37.64 56.70 57.38 54.72 51.20 46.14 55.54 43.93 51.02 55.82 56.87 58.04 59.19 61.01 61.71 62.47 63.78 64.72 64.88 65.65 66.25 67.07 68.09 68.11 67.20 67.89 68.51 68.32 67.60 66.60 66.46 66.56 67.83 67.84 67.50 67.38 68.38 71.80 71.30 69.92 68.37 66.58 66.72 66.51 69.38 65.18 64.90 67.74 67.42
45.79 58.04 54.37 53.97 49.53 44.45 45.88 45.24 46.79 55.64 53.58 56.25 58.74 60.77 62.15 63.79 64.34 64.08 64.79 65.92 67.20 68.08 68.03 68.14 67.25 67.32 68.44 68.15 67.79 67.28 66.24 66.94 67.67 67.97 67.99 67.73 68.75 71.43 72.06 70.49 69.02 66.88 65.17 65.19 68.22 69.68 68.55 68.08 67.18
55.22 51.59 48.22 47.21 44.86 38.78 42.85 45.74 44.16 51.22 53.33 57.01 59.23 59.70 61.81 64.14 65.27 64.96 65.91 66.59 66.55 67.85 68.65 68.31 67.34 67.26 67.73 67.68 67.93 67.19 66.96 67.07 66.33 67.07 69.82 67.74 68.22 69.87 71.13 70.78 69.14 68.38 64.95 65.48 64.96 68.94 70.58 67.67 63.24
45.96 41.64 36.08 38.24 37.98 37.89 43.73 43.92 45.20 53.51 56.56 57.55 58.95 59.63 61.10 63.78 65.10 64.86 64.60 65.86 65.82 66.35 67.73 68.20 67.46 67.05 68.00 67.86 68.21 68.22 67.49 67.90 66.79 67.20 68.65 68.40 68.01 68.46 68.99 70.91 69.59 68.84 68.46 67.82 67.40 70.31 70.67 70.94 69.93
42.42 41.00 36.38 32.52 35.37 38.25 43.64 39.69 48.58 54.89 57.07 59.98 59.96 61.41 61.88 61.60 64.80 65.34 65.24 65.43 66.49 66.91 68.19 68.58 67.86 67.20 67.68 68.25 68.11 68.97 68.47 68.26 68.33 67.92 67.63 67.89 68.77 68.82 69.23 70.86 70.93 70.52 71.07 71.34 70.93 71.04 70.86 71.32 70.84
41.84 37.78 40.96 36.10 35.69 35.95 40.44 46.73 52.78 54.15 54.83 57.09 58.03 59.52 60.94 61.62 63.11 64.78 65.48 64.59 67.07 67.69 68.50 68.75 68.31 67.97 67.71 68.50 68.47 68.80 69.20 68.34 67.84 68.71 68.79 68.91 68.99 69.71 69.76 69.87 70.93 71.06 71.29 71.23 70.33 70.18 70.03 70.52 70.11
43.90 44.55 37.97 38.87 33.98 32.37 40.44 43.71 42.85 49.27 51.47 55.15 56.32 56.90 59.67 61.63 63.02 63.84 64.78 65.19 65.98 68.58 69.35 69.53 69.33 68.61 68.22 68.26 68.68 69.21 69.39 69.63 68.95 68.65 68.59 69.97 69.11 69.88 69.80 70.44 70.61 70.99 71.25 71.51 71.00 69.76 69.44 69.37 70.04
45.39 43.32 43.22 42.24 39.04 35.83 34.85 39.40 50.22 49.79 52.82 53.85 55.79 55.86 57.04 59.85 60.75 63.84 63.59 65.52 66.04 68.57 69.11 69.34 69.28 68.47 67.36 68.66 68.92 68.41 69.34 69.80 69.40 68.25 68.07 69.74 69.76 70.56 70.43 70.74 71.10 70.91 70.94 70.88 70.63 70.72 70.53 70.19 69.59
46.89 44.32 42.73 38.21 38.34 38.91 38.47 39.36 53.86 53.73 55.18 55.42 56.17 57.42 59.64 60.88 62.50 65.49 63.84 64.45 65.19 66.68 68.13 69.12 69.59 68.50 67.98 68.87 69.26 68.86 69.15 69.94 69.36 69.07 69.38 69.84 69.40 70.24 70.72 70.65 69.19 69.85 71.08 70.01 70.84 70.56 71.33 70.22 70.09
MSLP
1009.54 1009.60 1009.79 1010.05 1010.89 1010.41 1010.51 1010.16 1009.56 1009.55 1009.92 1010.10 1010.45 1011.07 1011.57 1011.93 1012.56 1013.66 1013.47 1013.66 1013.97 1014.49 1014.57 1014.65 1014.63 1014.90 1014.93 1014.99 1014.88 1015.04 1015.01 1014.97 1015.16 1015.02 1015.28 1015.48 1015.67 1015.66 1015.85 1015.81 1015.89 1016.01 1016.08 1016.14 1016.27 1016.37 1016.48 1016.57 1016.61
1009.41 1009.54 1009.82 1010.28 1010.71 1010.85 1010.68 1009.99 1009.61 1009.47 1009.49 1010.07 1010.35 1010.85 1011.41 1012.36 1012.68 1013.46 1013.83 1013.93 1014.08 1014.57 1014.79 1014.91 1015.03 1015.04 1015.37 1015.24 1015.26 1015.16 1015.19 1015.28 1015.22 1015.29 1015.60 1015.70 1015.73 1015.90 1016.03 1015.98 1016.11 1016.27 1016.40 1016.39 1016.49 1016.57 1016.96 1016.84 1017.00
1009.09 1009.21 1010.03 1010.56 1010.95 1010.92 1010.73 1010.12 1009.62 1009.35 1009.47 1009.73 1010.42 1010.97 1011.98 1012.77 1013.20 1013.64 1013.62 1014.11 1014.41 1014.89 1015.07 1015.19 1015.12 1015.33 1015.59 1015.53 1015.42 1015.46 1015.43 1015.60 1015.67 1015.73 1015.94 1015.87 1015.91 1016.15 1016.27 1016.32 1016.35 1016.50 1016.59 1016.68 1016.72 1016.85 1017.14 1017.09 1017.54
1009.03 1009.78 1010.55 1010.84 1011.06 1010.99 1010.27 1010.08 1009.63 1009.26 1009.63 1009.71 1010.39 1011.64 1012.57 1012.65 1013.22 1013.42 1013.97 1014.24 1014.88 1015.15 1015.28 1015.25 1015.39 1015.57 1015.68 1015.44 1015.53 1015.71 1015.75 1015.80 1015.79 1015.99 1016.16 1016.10 1016.22 1016.42 1016.47 1016.47 1016.59 1016.64 1016.85 1016.87 1017.02 1017.21 1017.32 1017.62 1017.76
1009.30 1010.08 1011.07 1011.82 1011.69 1011.52 1011.33 1010.40 1010.25 1009.40 1009.63 1010.09 1010.48 1012.21 1013.18 1013.51 1013.43 1013.75 1014.22 1014.59 1015.09 1015.51 1015.43 1015.38 1015.52 1015.72 1015.87 1015.82 1015.78 1015.91 1016.02 1016.14 1016.21 1016.33 1016.38 1016.41 1016.51 1016.71 1016.81 1016.82 1016.87 1017.03 1017.00 1017.11 1017.39 1017.53 1017.68 1017.87 1018.04
1009.79 1010.68 1011.85 1012.63 1012.82 1012.51 1011.91 1011.29 1010.30 1009.80 1010.01 1010.59 1011.46 1012.32 1014.05 1013.91 1014.00 1014.28 1014.59 1014.94 1015.21 1015.66 1015.58 1015.53 1015.61 1015.81 1016.02 1015.99 1016.01 1016.26 1016.38 1016.51 1016.59 1016.66 1016.70 1016.77 1016.89 1016.97 1017.20 1017.24 1017.26 1017.16 1017.31 1017.59 1017.81 1017.88 1017.94 1018.11 1018.32
1010.43 1011.41 1012.66 1013.23 1013.45 1012.82 1012.46 1011.49 1010.18 1009.74 1010.08 1010.89 1011.30 1012.88 1014.36 1014.52 1014.56 1014.65 1015.04 1015.29 1015.33 1015.66 1015.86 1015.90 1015.99 1016.11 1016.25 1016.32 1016.36 1016.50 1016.82 1016.83 1016.85 1016.95 1017.04 1017.08 1017.17 1017.26 1017.48 1017.50 1017.48 1017.57 1017.75 1017.93 1018.13 1018.20 1018.32 1018.40 1018.50
1011.10 1011.77 1013.01 1013.41 1013.29 1013.20 1012.77 1011.61 1010.57 1010.13 1010.16 1010.50 1011.32 1012.73 1014.08 1014.63 1014.86 1015.17 1015.51 1015.73 1015.85 1016.03 1016.15 1016.26 1016.35 1016.47 1016.77 1016.73 1016.70 1016.84 1016.95 1017.09 1017.06 1017.22 1017.19 1017.37 1017.37 1017.49 1017.73 1017.84 1017.78 1017.92 1018.10 1018.24 1018.40 1018.47 1018.59 1018.65 1018.80
1011.12 1011.86 1012.63 1012.97 1013.13 1013.15 1012.42 1011.63 1010.74 1009.97 1010.21 1010.64 1010.97 1011.75 1012.91 1014.26 1015.03 1015.60 1015.88 1016.18 1016.28 1016.39 1016.57 1016.54 1016.68 1016.82 1017.09 1017.03 1017.08 1017.09 1017.20 1017.31 1017.54 1017.48 1017.61 1017.80 1017.89 1018.06 1018.14 1018.10 1018.06 1018.14 1018.30 1018.45 1018.56 1018.72 1018.67 1018.77 1019.08
1011.01 1011.87 1011.90 1011.92 1012.20 1012.41 1012.42 1012.05 1011.52 1010.79 1010.59 1011.25 1011.64 1012.62 1013.66 1014.46 1015.04 1015.43 1015.83 1016.18 1016.42 1016.52 1016.71 1016.80 1016.77 1017.07 1017.32 1017.29 1017.47 1017.52 1017.54 1017.71 1017.87 1017.84 1017.90 1018.26 1018.42 1018.57 1018.41 1018.52 1018.35 1018.47 1018.52 1018.59 1018.76 1018.70 1018.65 1018.98 1019.25
1010.82 1011.07 1011.23 1011.49 1011.87 1012.20 1012.51 1012.45 1012.07 1010.86 1010.91 1011.15 1011.69 1013.00 1013.97 1014.51 1015.22 1015.52 1015.88 1016.04 1016.25 1016.51 1016.73 1016.98 1017.03 1017.24 1017.47 1017.57 1017.79 1017.91 1018.06 1018.18 1018.16 1018.17 1018.30 1018.57 1018.83 1018.88 1018.86 1018.88 1018.98 1018.86 1018.68 1018.80 1018.86 1018.79 1019.02 1019.08 1019.18
1010.66 1010.68 1010.95 1011.39 1011.60 1011.91 1012.12 1012.44 1012.31 1011.08 1010.52 1011.01 1011.41 1012.28 1013.52 1014.57 1015.02 1015.41 1015.96 1016.30 1016.48 1016.67 1016.66 1016.97 1017.14 1017.37 1017.53 1017.67 1017.89 1018.04 1018.27 1018.29 1018.31 1018.41 1018.53 1018.79 1019.00 1019.13 1019.06 1018.94 1018.97 1019.14 1019.06 1018.97 1018.88 1018.92 1019.15 1018.99 1019.08
1010.62 1010.63 1010.50 1011.19 1011.83 1012.04 1012.14 1012.51 1012.25 1010.99 1010.73 1011.51 1012.11 1013.17 1013.79 1014.51 1014.82 1015.32 1015.91 1016.33 1016.60 1016.72 1016.80 1017.04 1017.16 1017.38 1017.61 1017.77 1018.03 1018.31 1018.49 1018.44 1018.41 1018.45 1018.51 1018.71 1018.93 1019.09 1019.03 1018.93 1019.28 1019.54 1019.33 1019.29 1019.02 1019.14 1019.20 1018.94 1018.79
1010.35 1010.42 1010.67 1011.23 1011.80 1012.09 1012.38 1012.52 1012.25 1011.32 1010.90 1011.80 1012.53 1013.27 1013.80 1014.31 1014.60 1015.28 1015.79 1016.08 1016.30 1016.52 1016.79 1016.93 1017.09 1017.21 1017.64 1017.86 1018.17 1018.37 1018.59 1018.54 1018.46 1018.34 1018.36 1018.60 1018.93 1019.00 1018.98 1019.08 1019.19 1019.20 1019.15 1018.79 1018.73 1018.86 1019.06 1018.89 1018.78
1010.53 1010.78 1011.18 1011.44 1011.69 1012.05 1012.50 1012.96 1012.26 1011.53 1011.32 1011.76 1012.54 1013.13 1013.69 1013.93 1014.43 1014.61 1014.79 1015.47 1015.94 1016.34 1016.59 1016.96 1017.18 1017.14 1017.47 1017.81 1018.13 1018.30 1018.47 1018.51 1018.57 1018.44 1018.34 1018.61 1018.89 1018.87 1018.93 1019.01 1018.98 1019.07 1018.91 1018.62 1018.51 1018.57 1018.62 1018.79 1018.75
1010.41 1011.00 1011.38 1011.39 1011.53 1011.59 1012.34 1012.35 1011.73 1011.63 1011.62 1011.85 1012.64 1013.30 1013.48 1013.88 1014.17 1014.53 1014.82 1015.25 1015.98 1016.40 1016.66 1017.01 1017.13 1017.28 1017.44 1017.62 1017.92 1018.22 1018.30 1018.44 1018.50 1018.59 1018.59 1018.74 1018.77 1019.02 1019.13 1018.99 1019.07 1019.18 1018.91 1018.70 1018.65 1018.74 1018.79 1018.95 1019.00
1010.98 1011.02 1010.89 1011.14 1011.34 1011.47 1012.10 1012.12 1011.57 1011.74 1011.65 1011.82 1012.39 1013.09 1013.72 1013.95 1014.32 1014.26 1014.60 1015.21 1015.60 1016.17 1016.52 1016.98 1017.16 1017.33 1017.46 1017.55 1017.78 1018.28 1018.19 1018.39 1018.44 1018.57 1018.94 1018.81 1018.83 1019.11 1019.10 1019.23 1019.33 1019.40 1019.28 1019.17 1018.94 1019.03 1018.98 1018.93 1018.94
1010.47 1010.75 1010.70 1010.66 1011.03 1011.42 1011.87 1011.96 1011.78 1011.68 1011.70 1012.01 1012.29 1012.84 1013.21 1013.64 1013.67 1013.85 1014.40 1015.02 1015.50 1016.01 1016.39 1016.81 1017.09 1017.38 1017.68 1017.86 1018.17 1018.69 1018.57 1018.46 1018.47 1018.63 1018.89 1018.85 1018.99 1019.02 1019.14 1019.36 1019.56 1019.47 1019.53 1019.35 1019.11 1019.09 1019.10 1019.00 1019.18
1009.62 1010.09 1010.33 1010.18 1010.46 1010.95 1011.25 1011.66 1011.95 1011.74 1012.05 1012.03 1012.33 1012.79 1013.04 1013.44 1013.40 1013.61 1014.19 1014.70 1015.47 1016.05 1016.61 1016.59 1016.90 1017.25 1017.91 1018.27 1018.66 1019.05 1018.66 1018.43 1018.49 1018.56 1018.65 1018.70 1018.81 1018.82 1018.92 1019.36 1019.49 1019.72 1019.71 1019.52 1019.17 1019.34 1019.47 1019.24 1019.30
1009.36 1009.51 1009.85 1009.83 1010.36 1010.96 1011.24 1011.37 1011.70 1011.87 1011.99 1012.06 1012.16 1012.66 1012.77 1013.16 1013.55 1013.82 1014.27 1014.66 1015.23 1015.62 1016.28 1016.47 1016.60 1016.96 1017.52 1017.71 1018.05 1018.19 1018.36 1018.25 1018.14 1018.35 1018.72 1018.71 1018.79 1018.81 1018.85 1019.29 1019.47 1019.60 1019.83 1019.58 1019.50 1019.39 1019.68 1019.83 1019.69
1008.60 1009.00 1009.30 1009.42 1009.97 1010.79 1011.27 1011.58 1011.71 1011.92 1012.20 1012.36 1012.37 1012.29 1012.36 1012.65 1013.25 1013.60 1013.96 1014.37 1014.95 1015.51 1015.84 1016.09 1016.19 1016.66 1017.03 1017.48 1017.83 1018.03 1018.22 1018.18 1018.60 1018.91 1018.87 1018.68 1018.73 1018.74 1018.88 1019.30 1019.41 1019.57 1019.72 1019.66 1019.66 1019.54 1019.64 1020.06 1020.07
1008.23 1007.73 1008.41 1008.68 1009.87 1011.12 1011.20 1011.90 1011.68 1012.01 1012.10 1012.34 1012.30 1012.38 1012.40 1012.69 1013.05 1013.28 1013.52 1013.90 1014.34 1014.78 1015.30 1015.62 1015.98 1016.26 1016.80 1017.28 1017.66 1017.97 1018.16 1018.53 1018.62 1018.46 1018.53 1018.66 1018.58 1018.72 1018.84 1019.12 1019.26 1019.55 1019.76 1019.71 1019.65 1019.58 1019.25 1019.77 1020.21
1007.12 1007.31 1007.94 1008.73 1010.24 1011.26 1011.49 1012.31 1012.04 1012.45 1012.95 1012.58 1012.22 1012.20 1012.29 1012.20 1012.54 1012.91 1013.06 1013.31 1013.35 1014.30 1014.82 1015.26 1015.71 1016.10 1016.48 1016.92 1017.26 1017.69 1018.12 1018.10 1018.07 1018.27 1018.51 1018.64 1018.60 1018.60 1018.74 1019.10 1019.29 1019.53 1019.76 1019.71 1019.76 1019.47 1019.34 1019.62 1020.08
1006.23 1007.98 1009.24 1010.32 1011.39 1012.42 1012.08 1012.63 1012.98 1013.15 1013.24 1012.66 1012.15 1011.90 1011.77 1011.90 1012.10 1012.43 1012.79 1013.18 1013.81 1014.10 1014.63 1015.06 1015.59 1016.04 1016.34 1016.69 1017.00 1017.37 1017.71 1018.01 1018.36 1018.51 1018.44 1018.49 1018.77 1018.76 1018.72 1019.14 1019.48 1019.39 1019.55 1019.55 1019.55 1019.43 1019.55 1019.59 1019.91
1007.15 1008.85 1010.68 1012.09 1012.98 1013.02 1012.45 1012.87 1013.36 1013.22 1013.02 1012.80 1011.84 1011.29 1011.52 1011.47 1011.77 1012.16 1012.53 1012.92 1013.53 1013.86 1014.23 1014.90 1015.33 1015.86 1016.15 1016.57 1016.76 1017.04 1017.25 1017.58 1018.05 1018.21 1018.26 1018.46 1018.63 1018.71 1018.58 1018.85 1019.15 1019.15 1019.13 1019.11 1019.14 1019.35 1019.36 1019.46 1019.81
1007.53 1008.88 1010.51 1012.20 1013.63 1013.32 1012.90 1013.15 1013.04 1013.20 1013.13 1012.72 1012.07 1011.40 1011.38 1011.58 1011.47 1011.82 1011.97 1012.37 1012.83 1013.20 1013.77 1014.38 1014.92 1015.43 1015.91 1016.11 1016.38 1016.52 1016.98 1017.23 1017.54 1017.74 1017.92 1017.97 1018.07 1018.11 1018.11 1018.45 1018.70 1018.73 1018.72 1018.77 1018.91 1019.14 1019.11 1019.36 1019.54
1007.65 1008.85 1009.94 1012.05 1013.70 1013.89 1013.72 1013.38 1013.42 1013.18 1013.14 1012.84 1012.37 1012.10 1011.77 1011.60 1011.12 1011.33 1011.80 1012.02 1012.20 1012.77 1013.16 1013.65 1014.36 1014.91 1015.30 1015.78 1016.09 1016.24 1016.49 1016.88 1017.20 1017.39 1017.46 1017.59 1017.73 1017.75 1017.83 1018.09 1018.44 1018.33 1018.46 1018.66 1018.77 1019.03 1019.15 1019.26 1019.39
1007.10 1008.82 1010.54 1012.26 1014.21 1014.78 1014.30 1013.71 1013.09 1013.01 1013.16 1012.98 1012.68 1012.44 1011.89 1011.33 1011.16 1011.08 1010.84 1011.43 1011.75 1011.98 1012.67 1013.23 1013.63 1014.17 1014.47 1015.10 1015.67 1016.00 1016.10 1016.28 1016.60 1016.96 1017.05 1017.17 1017.23 1017.36 1017.62 1017.92 1018.10 1018.31 1018.21 1018.26 1018.66 1018.91 1019.10 1019.31 1019.37
1008.13 1009.35 1011.30 1013.04 1014.30 1015.01 1014.92 1014.03 1012.33 1012.71 1013.10 1013.21 1012.87 1012.56 1012.26 1011.80 1011.18 1010.82 1010.63 1010.63 1011.34 1011.80 1012.38 1012.76 1013.03 1013.64 1014.13 1014.37 1015.02 1015.44 1015.82 1016.03 1016.25 1016.53 1016.72 1016.87 1016.97 1017.12 1017.33 1017.61 1017.82 1018.03 1018.14 1018.27 1018.55 1018.75 1018.92 1019.16 1019.27
1008.25 1009.33 1010.81 1012.87 1014.63 1014.99 1014.77 1013.58 1012.71 1012.98 1013.30 1013.29 1013.05 1012.53 1012.28 1011.65 1011.14 1010.44 1010.16 1010.20 1010.93 1011.09 1011.66 1012.39 1012.69 1013.10 1013.29 1013.65 1014.34 1014.86 1015.30 1015.70 1015.97 1016.19 1016.38 1016.63 1016.86 1016.91 1016.92 1017.20 1017.77 1017.86 1017.95 1018.22 1018.36 1018.52 1018.61 1018.81 1018.89
Wind_Speed
2 3 2 2 4 4 1 1 2 4 5 2 7 3 5 6 1 4 3 7 9 6 4 5 7 7 7 9 8 10 12 12 12 13 12 12 11 12 12 11 11 11 12 13 14 14 14 14 15
1 3 2 1 5 4 2 3 4 3 5 8 8 5 6 4 4 8 6 5 10 6 5 5 6 8 8 9 10 12 12 11 12 13 11 11 12 11 11 10 11 11 11 12 12 14 13 14 14
3 2 3 4 2 3 5 2 7 10 12 3 5 8 4 3 8 8 7 11 10 6 5 6 9 11 10 9 10 10 11 12 12 12 10 11 11 10 10 11 10 10 11 12 12 13 12 13 10
1 3 3 5 6 4 5 7 11 15 4 5 9 9 5 3 3 6 13 11 8 6 6 8 10 11 10 10 10 10 10 11 12 11 10 10 11 10 11 11 11 11 12 13 12 11 10 11 10
3 2 5 4 5 5 9 3 4 9 6 8 4 6 5 3 8 14 12 11 9 5 5 6 11 11 10 9 10 9 8 9 10 9 10 9 9 11 10 10 10 10 11 12 10 8 9 8 7
4 2 4 3 6 9 4 8 3 6 9 12 11 8 3 6 11 10 10 9 9 6 5 5 11 12 10 10 9 9 8 9 10 10 11 10 8 9 9 10 9 10 10 10 9 7 6 7 7
5 4 4 5 2 7 7 10 5 11 11 9 9 6 4 5 5 9 8 8 8 6 5 4 5 8 11 10 10 9 9 10 10 10 9 10 7 10 8 8 7 8 8 8 7 5 4 6 6
3 4 4 3 6 2 7 5 0 5 2 11 9 6 8 7 8 8 9 7 6 5 4 5 4 4 4 4 9 8 9 9 8 9 10 9 9 9 8 6 7 6 6 6 5 3 3 3 3
3 4 4 7 9 5 9 5 4 2 10 3 4 7 12 16 10 9 9 5 5 5 4 4 5 4 4 4 4 8 9 8 8 7 10 6 4 4 5 4 5 5 4 4 3 2 0 1 4
3 3 6 7 6 6 2 4 4 5 11 5 15 14 17 17 13 14 12 10 9 8 5 5 5 5 4 2 4 3 2 2 2 2 4 3 4 2 2 2 4 4 3 2 0 1 2 4 2
2 4 3 9 10 6 6 0 5 11 11 9 21 18 19 17 11 11 11 10 10 9 7 5 5 5 5 4 3 1 1 1 2 2 1 2 2 1 1 2 2 3 3 2 3 3 3 4 3
1 2 6 6 8 7 8 5 6 5 5 12 22 23 22 15 13 12 11 9 9 10 8 7 6 5 5 3 3 3 2 1 1 2 3 2 1 1 1 0 1 2 2 3 3 2 3 4 4
1 2 4 7 8 2 9 7 6 4 11 14 20 19 18 15 14 10 8 6 7 9 7 7 7 6 5 4 3 2 1 2 3 4 5 3 2 3 2 3 0 1 3 3 4 3 4 5 5
4 3 10 7 6 7 7 3 7 1 8 18 19 18 17 17 17 12 10 10 10 8 7 5 7 5 5 4 4 3 3 3 2 3 3 5 3 2 3 1 0 2 2 4 3 3 2 4 3
6 6 4 6 7 6 5 2 6 5 8 21 19 17 17 17 16 17 17 13 12 8 7 7 5 5 7 7 5 4 3 2 3 2 3 4 4 2 2 3 1 1 2 3 2 1 1 2 2
3 2 0 5 4 4 5 4 5 2 7 9 18 14 17 13 17 15 15 12 10 6 9 6 9 7 6 6 5 4 3 2 4 3 2 5 6 4 2 3 2 2 3 3 3 2 2 2 3
3 3 4 1 8 5 7 2 5 2 7 9 14 15 12 13 11 13 15 13 11 9 9 7 6 6 6 4 2 3 4 3 2 3 1 5 5 5 4 3 3 3 2 2 2 2 1 1 1
6 1 2 6 8 5 10 7 5 6 7 12 11 10 9 12 16 14 14 12 11 10 9 10 6 7 5 4 2 1 1 3 3 3 4 6 5 5 5 3 3 2 1 1 2 4 1 1 0
4 4 7 3 7 5 12 7 7 7 4 11 11 10 9 9 7 11 12 12 11 8 8 12 11 8 5 2 3 2 3 2 1 3 5 5 5 5 5 4 3 0 2 2 2 2 2 4 2
5 3 5 1 6 2 4 12 5 8 7 10 13 12 12 8 8 11 11 12 12 11 9 7 9 7 6 4 3 2 2 2 2 3 3 4 5 4 3 5 3 3 1 2 3 4 1 2 3
2 7 4 4 6 2 3 4 5 2 2 5 6 11 12 13 13 12 13 13 12 12 13 12 11 8 6 5 3 2 2 3 3 1 2 3 5 5 4 5 4 4 1 1 1 3 4 2 4
5 9 12 6 6 4 8 4 4 5 11 8 11 9 11 10 8 12 14 14 14 13 12 11 9 9 7 8 6 5 3 4 4 5 3 4 6 5 4 4 4 4 1 2 2 3 3 3 1
10 14 12 1 5 2 3 3 3 4 2 7 13 10 10 12 12 15 15 16 16 12 12 9 8 7 7 7 7 6 4 3 2 2 5 4 4 4 5 5 5 4 3 3 2 2 3 2 2
7 6 8 6 5 2 6 6 5 3 4 4 10 12 11 15 12 11 10 10 9 9 10 9 8 8 6 7 7 8 8 6 3 3 3 4 3 4 5 5 5 4 4 5 4 1 3 3 2
8 7 2 3 3 6 3 2 2 2 2 3 8 14 12 12 12 10 12 13 12 12 11 9 10 10 8 8 7 7 8 7 8 7 5 5 3 3 6 6 6 4 5 5 4 3 3 3 2
5 9 7 6 4 6 1 2 5 3 2 2 7 2 6 7 11 11 15 12 14 14 13 13 12 11 9 8 8 7 7 4 5 6 5 4 4 4 5 5 6 6 6 6 4 2 2 3 2
4 2 3 8 4 3 2 2 1 4 3 5 5 7 3 3 5 13 12 12 13 14 16 15 12 12 9 10 7 7 7 7 6 7 5 4 4 3 5 6 6 7 6 6 5 3 3 2 2
3 5 3 5 4 2 4 5 5 5 1 3 4 3 2 2 4 8 12 14 12 14 13 13 13 15 12 11 8 7 7 7 6 5 6 5 5 5 6 6 6 6 6 6 5 3 3 3 4
3 3 8 7 3 6 2 7 6 6 5 2 4 6 6 3 5 5 10 13 12 10 11 13 13 14 12 12 10 8 7 7 6 6 6 6 4 5 6 6 6 7 6 5 4 5 5 5 5
2 4 6 6 4 1 4 7 2 5 3 5 6 5 3 4 5 7 8 9 12 14 10 12 12 13 13 12 11 10 8 7 7 7 7 6 6 5 6 6 6 6 6 5 6 6 6 7 6
Wind_Direction
135 175 189 59 61 80 65 194 148 155 136 95 131 143 119 46 43 150 128 121 119 138 143 138 126 138 140 134 126 125 116 104 105 101 99 100 101 106 112 107 105 98 99 98 98 101 98 102 103
181 183 75 55 76 67 23 63 163 186 122 153 111 127 52 55 63 107 102 128 129 134 125 124 150 141 145 139 138 124 120 118 107 99 102 107 109 110 115 111 112 108 111 104 101 101 100 98 94
206 159 81 85 87 72 148 148 128 125 139 128 104 67 62 72 96 138 118 126 113 114 134 159 154 135 133 141 122 118 117 113 111 107 116 115 111 113 119 125 120 116 109 107 102 102 105 95 96
80 38 40 69 82 34 82 169 141 132 155 65 109 71 57 71 105 130 121 118 110 133 150 153 137 139 142 135 122 121 112 110 106 114 116 111 119 121 116 114 115 112 112 102 103 109 100 103 99
49 49 59 71 45 40 10 102 182 125 126 101 91 110 72 60 100 119 127 123 128 138 158 144 148 145 139 135 120 107 112 114 118 119 116 120 121 114 116 114 114 110 103 105 112 113 109 100 84
51 89 49 56 32 347 11 344 265 115 111 96 97 91 37 127 127 127 124 127 133 140 141 154 151 148 145 131 119 125 123 123 124 129 124 122 115 115 121 113 112 110 105 111 123 123 109 86 54
100 67 109 90 69 359 338 309 211 128 122 113 128 86 127 78 115 127 120 122 130 133 125 128 134 153 147 143 139 136 133 138 140 130 123 129 125 125 116 112 110 110 115 120 123 123 85 57 39
91 95 113 140 153 246 256 279 46 74 100 108 156 149 171 168 141 116 120 122 113 111 125 129 126 127 130 139 146 137 147 138 140 137 136 135 125 127 122 102 112 106 110 108 108 98 74 67 42
174 60 138 162 154 213 268 232 157 75 136 165 155 127 134 142 127 130 127 124 128 132 150 138 134 125 116 120 166 146 148 148 149 142 140 103 61 73 80 115 119 114 104 100 100 103 168 23 28
94 111 201 167 179 189 194 335 313 184 168 87 100 99 131 148 153 154 155 158 162 161 174 168 145 140 148 135 91 101 108 77 91 73 77 72 67 47 117 180 144 126 120 111 15 340 326 24 63
141 174 140 172 169 129 170 207 304 179 185 170 143 145 151 157 164 164 165 171 172 171 165 173 155 154 158 131 133 144 105 134 109 125 110 91 43 343 26 4 13 19 359 17 0 321 13 343 340
190 297 244 147 152 148 145 341 294 241 199 162 153 155 154 168 170 171 170 166 163 180 178 168 154 155 163 154 156 168 166 168 147 174 193 176 311 264 274 220 295 325 334 311 292 312 309 279 253
179 196 118 168 145 214 132 230 283 192 137 145 144 157 168 171 172 180 174 172 164 175 174 173 160 171 167 161 151 150 213 238 227 231 218 196 219 215 223 239 3 317 281 263 281 306 289 279 279
109 57 112 152 155 144 150 236 353 108 135 151 155 168 172 176 176 175 175 185 180 174 174 174 178 167 169 160 168 179 192 230 227 213 204 204 187 210 266 229 273 286 259 237 235 250 238 271 283
119 97 116 141 167 144 127 290 204 250 165 162 170 168 176 184 172 186 189 187 175 184 168 181 183 165 174 175 180 174 184 181 197 230 190 170 152 162 176 127 166 76 354 231 134 168 23 262 320
91 75 157 152 189 185 158 238 241 252 180 173 166 166 179 184 181 186 196 183 171 162 179 185 195 182 177 171 180 171 188 172 189 191 175 149 166 144 123 105 83 51 54 26 48 32 1 107 127
262 169 229 224 192 145 180 223 206 106 197 176 161 170 172 172 181 183 190 180 172 175 172 182 192 175 176 165 188 180 205 214 225 181 171 163 147 166 134 136 111 71 60 59 55 43 41 313 286
185 224 278 216 179 195 191 251 197 160 155 166 181 167 167 175 176 178 177 175 167 178 182 183 191 172 179 114 103 303 272 267 242 184 191 171 158 152 122 97 86 123 170 64 71 61 357 176 219
133 167 205 246 178 153 199 219 211 193 192 166 170 166 174 184 173 173 171 163 168 166 179 190 187 186 149 140 132 202 229 253 193 166 199 163 162 160 148 121 106 152 94 13 77 77 18 31 43
202 189 217 83 155 145 188 227 197 182 203 183 169 176 187 159 157 172 169 174 176 172 192 190 188 178 170 157 155 167 175 210 160 144 192 161 167 173 169 121 140 150 98 20 67 82 49 7 18
254 198 190 194 158 203 345 284 177 239 190 173 206 187 186 181 171 174 175 182 176 186 189 195 192 180 174 171 119 90 76 40 64 101 218 213 195 195 174 149 161 174 214 133 83 132 140 111 22
253 181 183 207 101 239 167 276 271 178 204 194 207 189 185 178 190 181 181 182 186 194 187 189 193 177 182 174 160 153 172 164 204 179 186 186 205 197 197 170 162 185 187 190 165 209 131 114 133
221 170 184 187 98 60 320 62 257 103 252 229 215 214 195 196 185 186 184 193 190 180 188 188 184 193 185 176 178 161 163 206 190 170 185 194 199 216 199 187 169 197 173 220 220 168 89 97 109
127 76 38 42 77 9 231 156 321 5 306 288 222 219 193 191 189 188 188 176 189 176 185 183 180 193 183 189 181 177 177 184 178 213 196 216 179 205 210 175 200 205 194 203 238 207 164 128 140
76 72 4 15 19 220 146 72 218 315 322 323 280 204 207 190 188 169 169 178 178 176 179 182 184 199 182 192 191 195 197 177 196 194 208 184 181 203 214 186 201 203 212 211 216 213 189 152 173
166 154 150 181 191 242 268 268 213 201 284 347 40 28 180 213 198 183 185 182 187 184 182 183 188 198 192 186 207 193 208 186 190 196 205 215 207 205 187 203 202 206 209 201 205 226 217 185 192
185 106 172 104 9 72 280 217 317 178 19 352 40 71 51 267 220 182 187 187 186 190 192 189 186 198 191 199 194 199 184 184 191 205 196 206 216 209 210 203 203 207 217 203 197 206 233 245 262
120 149 69 19 134 208 302 280 230 230 317 324 349 10 249 263 234 232 176 187 195 196 194 191 188 197 197 191 192 201 192 188 199 192 199 204 221 208 207 218 214 213 212 201 193 206 223 217 255
23 61 55 104 113 151 188 266 212 188 193 236 267 299 295 296 285 245 218 179 180 191 194 195 191 193 190 186 192 187 197 197 190 194 203 211 217 222 215 219 220 209 206 212 209 229 224 219 237
187 138 127 118 219 105 143 270 74 136 188 260 270 299 262 248 301 294 203 156 165 185 184 199 201 201 196 193 189 197 190 191 194 200 199 188 212 224 217 199 205 201 207 211 213 226 212 218 228